                ,  0.721,  0.869,  1.017,  1.165,  1.312,  1.460,  1.608,  1.756,  1.904,  2.052,  2.199,  2.347,  2.495,  2.643,  2.791,  2.938,  3.086,  3.234,  3.382,  3.530,  3.677,  3.825,  3.973,  4.121,  4.269,  4.417,  4.564,  4.712,  4.860,  5.008,  5.156,  5.303
1999/08/01 00:00,   -3.6,   -3.4,   -3.9,   -3.5,   -2.4,   -1.6,   -3.8,   -3.4,   -2.8,   -1.9,    0.9,    0.5,    0.7,  999.0,    1.7,    1.9,  999.0,    1.8,  999.0,  999.0,  999.0,  999.0,  999.0,  999.0,  999.0,  999.0,  999.0,  999.0,  999.0,  999.0,  999.0,  999.0
1999/08/01 00:10,   -3.4,   -3.3,   -3.3,   -3.6,   -2.9,   -2.7,   -3.6,   -3.8,   -3.7,   -2.2,    0.4,    0.5,    1.2,    0.7,    1.3,    1.0,    0.6,    0.7,  999.0,  999.0,  999.0,  999.0,  999.0,  999.0,  999.0,  999.0,  999.0,  999.0,  999.0,  999.0,  999.0,  999.0
1999/08/01 00:20,   -3.0,   -3.0,   -3.0,   -2.6,   -2.3,   -2.1,   -2.2,   -3.2,   -3.7,   -1.6,   -0.7,    0.6,    0.7,    1.1,    0.4,   -0.5,   -0.9,   -1.6,  999.0,  999.0,  999.0,  999.0,  999.0,  999.0,  999.0,    0.6,  999.0,  999.0,  999.0,  999.0,  999.0,  999.0
1999/08/01 00:30,   -2.9,   -2.3,   -2.3,   -2.5,   -2.1,   -1.5,   -2.3,   -2.7,   -2.7,   -1.9,   -0.3,    0.5,    1.4,  999.0,    1.0,    0.2,    0.3,   -0.2,  999.0,  999.0,  999.0,  999.0,  999.0,  999.0,  999.0,  999.0,  999.0,  999.0,  999.0,  999.0,  999.0,  999.0
1999/08/01 00:40,   -3.1,   -2.3,   -2.3,   -3.3,   -3.8,   -3.9,   -2.8,   -3.1,   -3.1,   -1.7,   -0.4,    1.1,    1.2,    0.3,   -0.6,    0.4,   -0.1,  999.0,   -1.1,  999.0,   -0.4,  999.0,  999.0,  999.0,  999.0,  999.0,  999.0,  999.0,  999.0,  999.0,  999.0,  999.0
1999/08/01 00:50,   -3.3,   -2.2,   -1.9,   -2.1,   -2.5,   -1.6,   -0.9,   -0.9,   -1.3,   -1.2,   -0.2,    0.6,    0.5,   -0.7,    0.3,    0.8,    1.4,  999.0,  999.0,  999.0,   -0.8,  999.0,   -1.0,   -1.3,  999.0,  999.0,  999.0,    4.4,  999.0,  999.0,  999.0,  999.0
1999/08/01 01:00,   -3.7,   -2.0,   -2.4,   -2.4,   -2.3,   -1.3,   -0.6,   -1.0,   -0.4,    2.2,    1.6,    2.6,    1.7,    0.9,    1.2,    1.3,    0.8,  999.0,   -0.6,  999.0,  999.0,  999.0,   -2.8,  999.0,  999.0,  999.0,  999.0,  999.0,  999.0,  999.0,  999.0,  999.0
1999/08/01 01:10,   -4.7,   -3.1,   -3.1,   -2.3,   -2.6,   -1.6,   -1.3,   -0.7,    0.8,    0.7,    0.9,    1.1,    0.6,    2.0,    0.3,    0.4,   -0.2,  999.0,  999.0,  999.0,  999.0,  999.0,   -2.6,   -3.2,  999.0,  999.0,  999.0,  999.0,    1.0,  999.0,  999.0,  999.0
1999/08/01 01:20,   -4.6,   -3.7,   -3.4,   -3.7,   -3.5,   -2.9,   -1.5,    0.7,    2.0,    2.2,    1.6,    0.4,   -0.1,   -0.4,   -0.9,    0.7,    0.5,   -1.0,  999.0,  999.0,  999.0,   -1.5,   -2.4,  999.0,  999.0,  999.0,  999.0,  999.0,  999.0,  999.0,  999.0,    1.5
1999/08/01 01:30,   -4.3,   -4.0,   -3.3,   -3.9,   -4.0,   -3.5,   -1.1,   -0.0,    1.9,    3.2,    3.1,    2.8,    2.5,    1.3,    0.7,    0.6,  999.0,    0.3,    0.2,  999.0,  999.0,  999.0,  999.0,  999.0,  999.0,  999.0,  999.0,    3.3,  999.0,  999.0,  999.0,  999.0
1999/08/01 01:40,   -4.3,   -3.5,   -3.3,   -2.6,   -2.6,   -1.5,   -0.5,   -0.1,    1.3,    2.5,    2.3,    2.6,    1.9,    0.4,  999.0,  999.0,  999.0,  999.0,   -0.3,  999.0,  999.0,  999.0,  999.0,  999.0,  999.0,  999.0,  999.0,  999.0,  999.0,  999.0,  999.0,  999.0
1999/08/01 01:50,   -4.7,   -3.4,   -3.4,   -3.1,   -2.8,   -1.8,   -1.2,    0.6,    1.8,    2.4,    1.7,    1.4,  999.0,  999.0,  999.0,  999.0,  999.0,   -1.1,   -1.1,   -1.1,   -0.9,   -0.4,  999.0,  999.0,  999.0,  999.0,  999.0,  999.0,  999.0,  999.0,  999.0,  999.0
1999/08/01 02:00,   -4.6,   -3.9,   -4.1,   -3.2,   -3.1,   -1.6,   -0.6,    0.9,    2.9,    3.4,    3.0,  999.0,  999.0,  999.0,  999.0,  999.0,  999.0,  999.0,  999.0,  999.0,  999.0,  999.0,  999.0,  999.0,  999.0,  999.0,  999.0,  999.0,    6.7,  999.0,  999.0,  999.0
1999/08/01 02:10,   -4.5,   -4.4,   -3.5,   -2.9,   -1.3,   -1.1,   -0.4,    1.3,    3.0,    4.5,    4.7,    4.2,    4.5,    1.2,  999.0,  999.0,    0.4,  999.0,  999.0,   -0.8,  999.0,  999.0,  999.0,  999.0,  999.0,  999.0,  999.0,  999.0,  999.0,  999.0,  999.0,  999.0
1999/08/01 02:20,   -5.1,   -4.8,   -3.9,   -3.2,   -2.3,   -1.3,   -0.1,    2.0,    3.4,    3.0,    2.4,    1.2,    1.4,   -0.5,  999.0,    0.7,  999.0,  999.0,   -0.1,   -0.7,  999.0,  999.0,  999.0,  999.0,  999.0,    3.3,    6.1,  999.0,  999.0,  999.0,  999.0,  999.0
1999/08/01 02:30,   -5.9,   -5.1,   -4.0,   -3.7,   -3.0,   -1.3,    0.6,    2.9,    3.8,    3.0,    2.4,    2.2,    1.8,    1.3,    0.8,  999.0,  999.0,  999.0,  999.0,  999.0,  999.0,  999.0,  999.0,  999.0,  999.0,    1.0,  999.0,  999.0,  999.0,  999.0,  999.0,  999.0
1999/08/01 02:40,   -6.0,   -4.7,   -3.8,   -3.8,   -2.7,   -0.8,    1.3,    2.8,    2.9,    2.8,    2.4,    2.5,    1.8,    1.2,  999.0,  999.0,  999.0,  999.0,  999.0,  999.0,  999.0,  999.0,  999.0,  999.0,    1.1,  999.0,  999.0,  999.0,  999.0,  999.0,    4.4,  999.0
1999/08/01 02:50,   -6.3,   -4.5,   -4.4,   -3.2,   -1.5,   -0.4,    0.9,    1.7,    2.6,    3.0,    2.8,    2.3,    2.0,    0.6,  999.0,  999.0,  999.0,  999.0,  999.0,  999.0,  999.0,  999.0,  999.0,  999.0,  999.0,  999.0,  999.0,  999.0,  999.0,  999.0,  999.0,  999.0
1999/08/01 03:00,   -6.1,   -5.0,   -4.3,   -3.7,   -1.7,   -0.6,    1.7,    3.3,    3.9,    4.0,    4.3,    3.2,    3.0,    2.6,  999.0,  999.0,  999.0,  999.0,  999.0,  999.0,  999.0,  999.0,  999.0,  999.0,  999.0,  999.0,  999.0,  999.0,  999.0,  999.0,  999.0,  999.0
1999/08/01 03:10,   -6.7,   -5.5,   -4.8,   -4.5,   -2.8,   -1.4,   -0.0,    1.7,    3.0,    3.2,    2.7,    1.7,    1.1,  999.0,  999.0,  999.0,  999.0,  999.0,  999.0,  999.0,  999.0,  999.0,  999.0,  999.0,  999.0,  999.0,    5.2,  999.0,  999.0,  999.0,  999.0,  999.0
1999/08/01 03:20,   -6.7,   -5.9,   -5.1,   -4.5,   -3.9,   -1.8,   -0.4,    1.4,    3.3,    3.6,    4.3,    4.0,    3.6,  999.0,  999.0,  999.0,  999.0,  999.0,  999.0,  999.0,  999.0,  999.0,  999.0,  999.0,  999.0,    5.4,    5.6,  999.0,  999.0,  999.0,  999.0,  999.0
1999/08/01 03:30,   -6.8,   -6.0,   -5.3,   -4.3,   -3.3,   -1.6,   -0.4,    2.2,    4.1,    4.5,    3.8,    4.2,    4.1,    4.1,    3.3,    2.8,  999.0,    2.4,  999.0,  999.0,  999.0,  999.0,  999.0,  999.0,  999.0,    4.7,    6.3,  999.0,  999.0,  999.0,  999.0,  999.0
1999/08/01 03:40,   -7.0,   -6.0,   -5.3,   -4.0,   -3.3,   -1.2,    0.9,    3.0,    4.7,    5.3,    5.4,    4.8,    4.3,    3.6,    3.5,    3.2,    2.7,    1.5,    1.6,  999.0,  999.0,  999.0,  999.0,  999.0,  999.0,  999.0,  999.0,  999.0,  999.0,  999.0,  999.0,  999.0
1999/08/01 03:50,   -7.0,   -6.2,   -5.1,   -3.5,   -2.9,   -1.0,    1.3,    3.5,    4.7,    6.1,    5.9,    4.1,    3.5,    3.5,    2.3,    1.5,    1.1,  999.0,    0.7,   -0.0,  999.0,  999.0,  999.0,  999.0,  999.0,  999.0,    3.0,  999.0,  999.0,  999.0,  999.0,  999.0
1999/08/01 04:00,   -7.5,   -6.3,   -4.6,   -3.9,   -2.4,    0.0,    2.2,    4.3,    6.0,    6.8,    7.6,    7.0,    6.5,    5.4,    4.2,    3.3,    1.8,    1.1,    1.5,  999.0,  999.0,  999.0,  999.0,  999.0,  999.0,    3.3,    3.8,  999.0,  999.0,  999.0,  999.0,  999.0
1999/08/01 04:10,   -7.3,   -6.3,   -4.8,   -4.6,   -3.5,   -0.9,    1.2,    3.5,    5.2,    6.2,    6.1,    5.5,    5.0,    4.1,    2.7,    1.8,    1.5,  999.0,  999.0,  999.0,  999.0,  999.0,  999.0,  999.0,  999.0,  999.0,    2.3,  999.0,  999.0,  999.0,  999.0,  999.0
1999/08/01 04:20,   -7.6,   -6.6,   -6.1,   -6.0,   -5.0,   -3.4,   -0.6,    2.3,    2.4,    3.7,    5.3,    6.2,    6.2,    6.0,    5.2,    3.6,    2.7,  999.0,  999.0,  999.0,  999.0,  999.0,  999.0,  999.0,  999.0,  999.0,    4.8,  999.0,  999.0,  999.0,  999.0,  999.0
1999/08/01 04:30,   -7.3,   -7.0,   -6.4,   -5.5,   -5.8,   -4.3,   -3.3,    0.2,    1.3,    2.8,    3.2,    3.5,    4.0,    4.1,    3.8,    2.8,  999.0,  999.0,  999.0,  999.0,  999.0,  999.0,  999.0,  999.0,  999.0,  999.0,    2.7,  999.0,  999.0,  999.0,  999.0,  999.0
1999/08/01 04:40,   -7.6,   -6.9,   -6.6,   -5.9,   -5.1,   -4.2,   -3.0,   -1.8,   -0.4,    1.0,    2.2,    2.9,    3.2,    2.9,    3.0,    2.5,    1.5,    0.7,    0.4,  999.0,  999.0,  999.0,  999.0,  999.0,  999.0,  999.0,    1.1,  999.0,  999.0,  999.0,  999.0,  999.0
1999/08/01 04:50,   -7.4,   -6.9,   -6.4,   -5.8,   -5.0,   -4.3,   -4.2,   -3.7,   -2.5,   -0.8,    1.1,    2.5,    2.9,    3.4,    4.3,    3.0,    3.0,    2.7,    1.0,  999.0,  999.0,  999.0,  999.0,  999.0,  999.0,  999.0,  999.0,  999.0,  999.0,  999.0,  999.0,  999.0
1999/08/01 05:00,   -7.5,   -7.8,   -6.0,   -6.1,   -6.4,   -5.4,   -4.4,   -3.8,   -1.8,   -1.1,   -0.4,    2.3,    3.0,    3.8,    4.6,    4.2,    3.3,    2.6,    2.3,  999.0,  999.0,  999.0,  999.0,  999.0,  999.0,  999.0,  999.0,  999.0,  999.0,  999.0,  999.0,  999.0
1999/08/01 05:10,   -8.8,   -5.8,   -4.9,   -4.4,   -4.7,   -3.6,   -2.3,   -1.4,   -0.8,    0.2,    1.5,    3.8,    5.1,    5.1,    4.5,    3.4,    2.8,    1.2,    0.4,  999.0,  999.0,  999.0,  999.0,  999.0,  999.0,  999.0,  999.0,  999.0,  999.0,  999.0,  999.0,  999.0
1999/08/01 05:20,   -7.6,   -5.6,   -7.0,   -6.5,   -4.5,   -3.6,   -3.4,   -2.3,   -0.7,    0.4,    1.6,    3.7,    5.1,    5.6,    4.7,    3.5,    3.7,    1.1,    0.7,   -0.2,    0.6,  999.0,  999.0,  999.0,  999.0,  999.0,    3.9,  999.0,  999.0,  999.0,  999.0,  999.0
1999/08/01 05:30,   -7.2,   -6.0,   -4.8,   -2.4,   -2.3,   -1.7,   -1.4,   -0.8,    0.4,    2.5,    4.2,    5.6,  999.0,    6.3,    6.5,    5.2,    2.9,    1.9,    1.0,  999.0,  999.0,   -0.4,  999.0,  999.0,  999.0,  999.0,    2.0,  999.0,  999.0,  999.0,  999.0,  999.0
1999/08/01 05:40,   -7.2,   -6.5,   -5.6,   -4.3,   -4.2,   -4.0,   -3.0,   -1.5,    0.7,    2.9,    4.7,    6.5,    6.7,    5.8,    5.0,    2.6,    1.8,    1.1,  999.0,  999.0,  999.0,  999.0,  999.0,  999.0,  999.0,  999.0,  999.0,  999.0,  999.0,  999.0,  999.0,  999.0
1999/08/01 05:50,   -7.5,   -6.8,   -5.4,   -4.2,   -3.7,   -2.7,   -1.8,   -0.1,    2.1,    3.8,    5.2,    6.8,    6.5,    5.7,    5.2,  999.0,  999.0,    2.7,  999.0,  999.0,  999.0,  999.0,  999.0,  999.0,    2.6,    3.3,  999.0,  999.0,  999.0,  999.0,  999.0,  999.0
1999/08/01 06:00,   -6.7,   -5.9,   -5.5,   -5.2,   -3.9,   -2.2,   -0.6,    0.7,    2.7,    3.9,    5.9,    7.0,    7.5,    6.7,    6.6,  999.0,  999.0,    3.9,    2.7,  999.0,  999.0,  999.0,  999.0,  999.0,    3.0,    5.0,  999.0,  999.0,  999.0,  999.0,  999.0,  999.0
1999/08/01 06:10,   -6.8,   -6.2,   -5.2,   -5.1,   -4.0,   -2.5,   -0.6,    0.7,    2.7,    3.9,    4.9,    6.5,    6.8,  999.0,    4.2,  999.0,  999.0,  999.0,    3.8,  999.0,  999.0,  999.0,  999.0,  999.0,  999.0,    3.9,    4.8,  999.0,  999.0,  999.0,  999.0,  999.0
1999/08/01 06:20,   -7.0,   -6.3,   -5.2,   -5.5,   -5.4,   -4.2,   -2.1,    0.1,    1.5,    2.5,    4.8,    6.0,    6.2,  999.0,  999.0,    2.1,  999.0,  999.0,  999.0,  999.0,  999.0,  999.0,  999.0,  999.0,  999.0,    2.5,    4.7,  999.0,  999.0,  999.0,  999.0,  999.0
1999/08/01 06:30,   -6.8,   -5.9,   -5.5,   -5.2,   -4.7,   -4.0,   -2.4,   -1.4,   -0.1,    1.5,    3.2,    3.8,    4.9,    6.0,    6.8,    6.2,    5.2,  999.0,  999.0,  999.0,  999.0,  999.0,  999.0,  999.0,  999.0,  999.0,    4.3,  999.0,  999.0,  999.0,  999.0,  999.0
1999/08/01 06:40,   -6.7,   -6.4,   -6.2,   -5.5,   -4.3,   -3.9,   -3.6,   -3.1,   -2.6,   -2.4,  999.0,    0.9,    2.5,    3.9,    5.0,    6.5,  999.0,  999.0,  999.0,  999.0,  999.0,  999.0,  999.0,  999.0,  999.0,  999.0,    3.8,    4.3,    3.1,  999.0,  999.0,  999.0
1999/08/01 06:50,   -7.1,   -6.6,   -5.9,   -5.2,   -4.3,   -4.1,   -3.6,   -3.1,   -2.9,   -2.0,   -1.3,   -1.2,    0.8,    2.9,    4.2,    5.2,    5.0,  999.0,  999.0,  999.0,  999.0,  999.0,  999.0,  999.0,  999.0,  999.0,    3.1,  999.0,    2.3,  999.0,  999.0,  999.0
1999/08/01 07:00,   -6.1,   -5.9,   -5.7,   -5.5,   -4.7,   -4.7,   -3.6,   -2.6,   -1.4,   -0.7,    0.2,    0.2,   -0.2,    0.1,    1.5,    2.4,    2.5,    3.0,  999.0,  999.0,  999.0,  999.0,  999.0,  999.0,  999.0,  999.0,  999.0,    4.0,  999.0,  999.0,    3.3,  999.0
1999/08/01 07:10,   -6.5,   -6.0,   -5.6,   -6.2,   -5.9,   -5.3,   -3.6,   -2.1,   -0.6,    0.3,    1.2,    1.7,    1.5,    0.9,    1.0,    1.3,    3.1,    4.4,  999.0,  999.0,  999.0,  999.0,  999.0,  999.0,  999.0,  999.0,  999.0,  999.0,  999.0,  999.0,  999.0,  999.0
1999/08/01 07:20,   -6.6,   -6.2,   -6.6,   -6.4,   -6.3,   -5.6,   -4.0,   -2.4,   -1.7,   -0.7,   -0.2,    0.7,    1.7,    1.4,    0.6,    1.5,    2.7,    4.1,    3.2,    3.7,    3.5,    2.1,    1.1,    1.0,  999.0,  999.0,  999.0,  999.0,  999.0,  999.0,    3.9,  999.0
1999/08/01 07:30,   -7.5,   -7.1,   -6.5,   -7.1,   -7.1,   -5.7,   -2.9,   -1.6,   -0.8,    0.5,    1.6,    2.5,    2.8,    3.8,    2.1,    1.9,    1.3,    1.3,    1.0,    1.7,    1.9,    1.0,    0.0,    1.0,    2.2,    3.4,  999.0,  999.0,    3.9,  999.0,    5.1,  999.0
1999/08/01 07:40,   -7.9,   -6.6,   -6.3,   -6.0,   -6.0,   -5.3,   -4.1,   -1.9,   -0.1,    1.0,    2.8,    4.3,    3.9,    3.2,    1.7,    1.6,    1.8,    1.3,    0.8,    0.4,    0.6,    0.8,    1.5,    2.6,    2.3,    2.8,  999.0,  999.0,  999.0,  999.0,  999.0,  999.0
1999/08/01 07:50,   -7.6,   -6.3,   -4.6,  999.0,  999.0,   -6.5,   -5.2,   -3.9,   -2.9,    0.1,    1.9,    2.5,    3.8,    3.9,    3.8,    3.1,    3.2,    3.4,    2.3,    1.6,    1.5,    1.8,    1.3,    1.9,  999.0,    2.3,    2.0,  999.0,  999.0,  999.0,  999.0,  999.0
1999/08/01 08:00,   -6.5,   -5.7,   -5.6,   -5.6,   -5.9,   -5.5,   -5.1,   -4.3,   -3.0,   -0.9,    1.7,    2.7,    3.0,    4.6,    4.2,    3.7,    3.2,    2.9,    3.1,    2.6,    1.4,    1.2,    0.3,    0.2,  999.0,    0.3,    0.7,    0.4,    1.4,  999.0,  999.0,  999.0
1999/08/01 08:10,   -7.5,   -6.6,   -6.1,   -5.7,   -5.4,   -5.2,   -5.0,   -4.1,   -3.4,   -2.2,   -0.1,    1.9,    2.4,    2.4,    3.8,    3.1,    2.8,    2.8,  999.0,    1.4,   -0.4,   -0.8,   -0.5,  999.0,  999.0,  999.0,   -0.1,  999.0,  999.0,  999.0,  999.0,  999.0
1999/08/01 08:20,   -7.2,   -6.5,   -6.6,   -6.2,   -5.6,   -5.5,   -4.9,   -4.3,   -3.5,   -3.3,   -2.6,   -0.4,    1.7,    2.5,    2.0,    2.7,    3.3,    3.8,    2.3,    2.5,    1.6,    1.3,  999.0,  999.0,  999.0,  999.0,  999.0,  999.0,    1.5,  999.0,  999.0,  999.0
1999/08/01 08:30,   -5.8,   -6.2,   -6.0,   -5.6,   -5.0,   -4.5,   -3.2,   -2.1,   -1.6,   -1.3,   -1.7,   -2.4,   -1.3,   -0.4,    1.2,    1.7,    2.3,    2.6,    1.7,    2.6,    2.1,    2.6,    3.7,  999.0,  999.0,  999.0,  999.0,    2.2,  999.0,  999.0,    2.5,  999.0
1999/08/01 08:40,   -6.3,   -6.4,   -6.5,   -6.1,   -5.6,   -4.6,   -3.5,   -1.6,   -0.5,    1.4,    1.9,    2.2,    0.8,    0.4,   -0.7,    0.3,    1.5,    2.7,    1.9,    0.7,   -0.3,   -0.5,  999.0,   -0.3,  999.0,  999.0,  999.0,  999.0,  999.0,  999.0,  999.0,  999.0
1999/08/01 08:50,   -6.8,   -6.4,   -6.4,   -6.3,   -5.2,   -4.1,   -2.9,   -1.5,   -0.3,    0.3,    0.9,    2.2,    1.1,    0.7,    0.1,    0.5,    1.1,    1.8,    2.5,    1.1,   -0.2,   -0.9,   -0.7,   -0.3,    0.1,  999.0,  999.0,  999.0,  999.0,  999.0,  999.0,  999.0
1999/08/01 09:00,   -7.1,   -6.9,   -6.7,   -6.1,   -5.4,   -4.8,   -3.2,   -2.1,   -1.2,   -0.6,    0.7,    0.7,    1.2,    0.7,    0.9,    0.8,    0.1,    1.6,    1.2,  999.0,    0.3,    0.3,  999.0,  999.0,    0.4,  999.0,  999.0,  999.0,  999.0,  999.0,  999.0,  999.0
1999/08/01 09:10,   -7.5,   -6.8,   -6.2,   -5.3,   -4.8,   -3.8,   -2.5,   -1.1,   -0.5,    0.2,    1.6,    2.5,    2.8,    2.7,    2.7,    0.9,    0.8,   -0.1,    1.6,    1.2,    0.4,    0.3,    1.6,   -0.2,    0.5,  999.0,  999.0,  999.0,  999.0,  999.0,  999.0,  999.0
1999/08/01 09:20,   -6.9,   -7.1,   -6.5,   -5.9,   -5.1,   -4.9,   -3.5,   -1.7,   -0.9,    0.5,    1.9,    2.3,    2.9,    2.9,    3.2,    2.5,    1.9,    0.8,    0.8,    0.7,    1.0,  999.0,    1.1,  999.0,  999.0,  999.0,  999.0,  999.0,  999.0,  999.0,  999.0,  999.0
1999/08/01 09:30,   -8.3,   -8.3,   -7.5,   -7.7,   -7.3,   -6.4,   -5.3,   -4.7,   -4.0,   -1.9,   -0.2,    1.5,    2.0,    2.0,    2.3,    2.9,    2.0,    0.7,    0.2,   -0.2,   -1.0,   -0.2,  999.0,  999.0,  999.0,  999.0,  999.0,  999.0,  999.0,  999.0,  999.0,  999.0
1999/08/01 09:40,   -9.1,   -8.9,   -8.4,   -7.7,   -7.7,   -7.2,   -5.9,   -4.3,   -3.7,   -2.1,   -0.7,    1.0,    1.8,    2.6,    2.7,    1.6,    1.0,    1.4,    2.0,   -0.2,   -0.1,    0.1,   -0.4,  999.0,  999.0,  999.0,  999.0,  999.0,  999.0,  999.0,  999.0,  999.0
1999/08/01 09:50,   -7.0,   -7.6,   -7.1,   -6.6,   -7.1,   -6.3,   -3.8,   -2.8,   -2.7,   -1.7,   -0.8,    0.3,    1.1,    1.7,    2.0,    1.8,    1.5,    0.9,   -0.3,    0.2,   -0.0,  999.0,  999.0,  999.0,  999.0,  999.0,  999.0,  999.0,  999.0,  999.0,  999.0,  999.0
1999/08/01 10:00,   -8.9,   -7.6,  999.0,  999.0,   -5.9,   -6.8,  999.0,   -6.0,   -2.4,   -2.0,   -2.1,   -1.6,   -0.6,    0.5,    1.3,    1.0,    1.4,    1.6,    1.1,  999.0,  999.0,  999.0,  999.0,  999.0,  999.0,  999.0,  999.0,  999.0,  999.0,  999.0,  999.0,  999.0
1999/08/01 10:10,   -6.0,   -5.6,   -5.9,   -4.8,   -4.8,   -4.4,   -4.2,   -4.3,   -4.6,   -4.0,   -3.0,   -0.5,   -0.4,    1.4,    2.3,    1.3,    1.2,    0.9,    1.2,    1.1,    1.3,    1.5,    0.9,  999.0,  999.0,  999.0,  999.0,  999.0,  999.0,  999.0,  999.0,  999.0
1999/08/01 10:20,   -5.9,   -6.2,   -5.8,   -5.2,   -5.2,   -5.1,   -4.0,   -3.2,   -3.2,   -2.4,   -1.5,    0.1,    0.6,    1.3,    1.3,    2.1,    0.3,   -0.0,    0.8,    0.7,    0.5,    1.6,    0.7,    1.8,    2.7,    0.1,    0.5,    0.5,  999.0,  999.0,  999.0,  999.0
1999/08/01 10:30,   -6.2,   -6.2,   -6.0,   -5.4,   -5.2,   -5.3,   -4.0,   -3.2,   -2.7,   -2.1,   -1.8,   -0.0,    0.4,    0.0,    2.3,    0.7,    0.7,   -0.5,   -0.5,   -1.4,  999.0,  999.0,  999.0,  999.0,  999.0,  999.0,  999.0,  999.0,   -0.6,  999.0,  999.0,  999.0
1999/08/01 10:40,   -8.8,   -8.3,   -7.0,   -6.4,   -5.1,   -5.4,   -4.7,   -3.8,   -2.7,   -1.8,   -0.1,   -0.3,   -1.2,   -0.3,   -0.5,    1.2,    0.1,    0.6,    1.2,    1.6,    1.8,  999.0,  999.0,  999.0,  999.0,  999.0,  999.0,  999.0,  999.0,  999.0,  999.0,  999.0
1999/08/01 10:50,   -6.3,   -5.0,   -6.2,   -6.5,   -5.6,   -5.0,   -4.1,   -4.9,   -4.3,   -3.2,   -2.6,   -2.1,   -1.4,   -2.4,  999.0,   -0.9,   -0.9,   -1.3,   -0.4,   -0.6,   -1.0,   -2.0,  999.0,  999.0,   -0.4,  999.0,    0.4,    0.3,  999.0,  999.0,  999.0,  999.0
1999/08/01 11:00,   -7.7,   -6.8,   -5.8,   -4.9,   -4.8,   -4.1,   -3.9,   -3.3,   -3.5,   -2.7,   -2.5,   -2.5,   -2.5,   -1.7,   -1.2,  999.0,   -0.6,    0.3,   -0.5,   -0.4,   -0.1,   -0.0,   -0.2,    0.4,  999.0,  999.0,    2.5,    1.5,  999.0,  999.0,  999.0,  999.0
1999/08/01 11:10,   -6.3,   -5.2,   -6.2,   -3.9,   -4.7,   -4.3,   -4.2,   -5.4,   -4.2,   -3.4,   -2.9,   -2.0,   -1.0,   -0.4,  999.0,  999.0,   -0.6,   -0.3,    0.9,    2.0,    1.6,    1.0,  999.0,    1.1,  999.0,  999.0,    1.4,    2.8,  999.0,  999.0,  999.0,  999.0
1999/08/01 11:20,   -7.8,   -7.0,   -6.7,   -6.0,   -5.9,   -5.8,   -5.4,   -6.1,   -5.5,   -4.8,   -3.5,   -3.3,   -2.7,   -2.5,   -1.6,    0.4,   -1.1,   -0.9,   -0.1,    0.6,    0.6,    0.8,    0.2,  999.0,    0.3,  999.0,  999.0,  999.0,   -0.9,   -1.9,  999.0,  999.0
1999/08/01 11:30,   -7.3,   -5.8,   -5.3,   -4.9,   -5.2,   -4.4,   -4.5,   -4.3,   -3.8,   -3.5,   -2.8,   -2.0,   -2.3,   -2.5,   -2.2,   -0.9,  999.0,   -1.5,   -1.6,   -1.4,   -1.0,  999.0,  999.0,  999.0,  999.0,  999.0,  999.0,  999.0,  999.0,  999.0,  999.0,  999.0
1999/08/01 11:40,   -4.2,   -3.9,   -3.7,   -4.1,   -3.6,   -3.4,   -3.4,   -3.0,   -2.1,   -1.7,   -1.8,   -3.0,   -2.3,   -2.7,   -3.2,   -2.7,   -1.3,   -1.5,   -2.0,   -2.4,  999.0,  999.0,  999.0,  999.0,  999.0,  999.0,  999.0,  999.0,  999.0,  999.0,  999.0,  999.0
1999/08/01 11:50,  999.0,   -5.2,   -4.8,   -4.7,   -4.4,   -4.1,   -3.2,   -2.9,   -2.4,   -1.9,   -1.4,   -1.1,   -0.5,   -0.1,   -0.1,   -0.6,   -2.2,   -2.5,   -1.2,   -1.2,   -0.9,    0.1,    0.3,  999.0,  999.0,  999.0,  999.0,  999.0,  999.0,  999.0,  999.0,  999.0
1999/08/01 12:00,   -7.2,  999.0,   -5.3,   -5.4,   -4.2,   -4.2,   -3.7,   -3.6,   -3.6,   -3.5,   -1.2,   -0.1,    0.0,    0.9,    2.2,    2.0,    1.4,    0.7,    0.8,  999.0,    0.4,   -0.4,  999.0,  999.0,  999.0,  999.0,  999.0,  999.0,  999.0,  999.0,  999.0,  999.0
1999/08/01 12:10,   -5.1,   -4.4,   -3.9,   -3.6,   -3.1,   -2.8,   -2.5,   -2.6,   -3.3,   -3.0,   -1.7,   -1.1,   -0.2,    0.8,    2.9,    2.5,    2.6,    2.0,    1.2,    1.4,    1.1,    0.6,   -0.1,   -0.2,  999.0,   -0.0,   -0.9,   -2.3,   -1.0,  999.0,  999.0,  999.0
1999/08/01 12:20,   -5.1,   -4.2,   -3.8,   -3.2,   -3.0,   -3.2,   -2.9,   -3.4,   -2.9,   -2.9,   -2.2,   -1.6,   -0.4,    1.0,    1.0,    3.1,    3.4,    3.4,    2.8,    2.3,    1.2,  999.0,  999.0,    2.1,    1.3,    1.2,   -0.5,    0.4,    0.2,   -1.6,  999.0,  999.0
1999/08/01 12:30,   -4.8,  999.0,   -3.3,   -2.9,   -1.9,   -2.7,   -2.7,   -3.0,   -3.6,   -3.4,   -4.4,   -3.3,   -1.6,   -1.1,    0.7,    1.8,    2.8,    2.7,    2.5,    1.6,   -0.1,  999.0,    2.2,    1.5,    1.3,    0.7,    0.8,  999.0,   -1.7,  999.0,  999.0,  999.0
1999/08/01 12:40,   -2.9,   -3.9,   -3.4,   -2.9,   -2.2,   -1.4,   -1.9,   -1.9,   -0.5,   -0.6,   -1.9,   -1.8,   -1.1,    0.6,    0.7,    0.7,    1.0,    1.6,    2.5,    2.3,  999.0,    1.3,    0.6,  999.0,  999.0,  999.0,  999.0,   -0.2,   -1.8,  999.0,  999.0,  999.0
1999/08/01 12:50,   -3.9,   -4.5,   -5.1,   -3.7,   -3.0,   -2.9,   -3.1,   -2.5,   -1.3,   -2.3,   -2.4,   -2.2,   -1.8,   -1.6,   -0.6,    1.3,    1.3,    0.4,    0.3,    0.4,   -1.5,   -0.9,   -1.4,   -2.0,   -2.4,  999.0,   -2.4,   -1.5,   -2.3,   -2.7,  999.0,  999.0
1999/08/01 13:00,   -6.1,   -6.2,   -6.8,   -6.0,   -5.2,   -5.6,   -4.9,   -4.6,   -3.5,   -3.4,   -4.2,   -3.3,   -2.4,   -1.8,   -0.9,   -0.4,   -0.6,   -1.2,   -0.4,   -0.5,   -1.0,  999.0,   -0.8,  999.0,  999.0,  999.0,   -2.0,   -2.7,   -3.5,  999.0,  999.0,  999.0
1999/08/01 13:10,   -5.4,   -6.0,   -5.7,   -4.3,   -3.7,   -2.6,   -1.5,   -2.1,   -2.3,   -3.2,   -2.8,   -3.0,   -2.9,   -2.5,   -0.4,   -0.5,   -1.3,   -1.1,   -1.0,   -0.9,   -0.8,   -0.4,    0.1,  999.0,    0.0,  999.0,  999.0,  999.0,    0.8,  999.0,  999.0,   -0.9
1999/08/01 13:20,   -5.4,   -5.2,   -4.9,   -4.2,   -3.2,   -3.3,   -3.7,   -3.5,   -3.3,   -3.3,   -3.6,   -3.2,   -2.5,   -2.6,   -2.7,   -3.0,   -2.7,   -2.9,   -2.6,   -2.3,   -1.4,   -1.3,   -0.2,    1.4,    2.6,    1.7,  999.0,   -0.0,   -1.0,   -1.2,  999.0,  999.0
1999/08/01 13:30,   -5.4,   -5.6,   -6.2,   -5.5,   -5.2,   -4.1,   -4.2,   -3.7,   -3.6,   -3.8,   -4.0,   -3.6,   -3.0,   -2.7,   -2.6,   -1.6,   -1.0,   -0.9,   -0.7,   -0.3,   -0.2,   -0.2,   -0.5,    0.0,  999.0,  999.0,  999.0,   -1.6,   -1.1,   -1.4,  999.0,  999.0
1999/08/01 13:40,   -6.0,   -6.5,   -6.0,   -5.8,   -4.7,   -4.0,   -2.8,   -2.6,   -2.5,   -2.9,   -2.5,   -1.0,   -0.3,    0.4,    0.8,    1.6,    1.8,    1.5,    1.9,    1.5,    0.9,   -0.5,   -1.3,   -1.2,  999.0,  999.0,  999.0,   -0.6,  999.0,  999.0,  999.0,  999.0
1999/08/01 13:50,   -4.7,   -5.8,   -6.3,   -4.6,   -5.4,   -4.0,   -2.7,   -3.2,   -1.1,   -1.7,   -0.4,   -0.6,   -0.3,    0.9,    1.2,    0.9,    1.5,    1.4,  999.0,    1.6,    1.5,    2.2,  999.0,  999.0,  999.0,  999.0,  999.0,   -0.1,  999.0,   -1.5,  999.0,  999.0
1999/08/01 14:00,   -4.0,   -5.0,   -5.1,   -5.3,   -6.1,   -4.2,   -2.1,   -1.5,   -1.2,    0.1,   -1.5,   -2.6,   -1.7,   -0.6,   -0.8,   -0.7,   -0.8,   -1.8,  999.0,   -0.7,   -0.3,  999.0,  999.0,  999.0,   -1.7,  999.0,  999.0,    0.7,   -0.5,  999.0,  999.0,  999.0
1999/08/01 14:10,   -4.4,   -4.6,   -4.1,   -4.8,   -4.1,   -4.6,   -4.2,   -4.0,   -3.2,   -2.8,   -1.6,   -0.8,   -0.1,    0.3,    0.8,    0.8,    0.3,   -0.5,  999.0,   -1.1,   -0.8,   -1.1,  999.0,  999.0,  999.0,  999.0,  999.0,   -1.9,   -0.0,  999.0,  999.0,  999.0
1999/08/01 14:20,   -5.5,   -4.9,   -4.1,   -4.5,   -5.6,   -5.1,   -5.8,   -4.3,   -1.9,   -1.9,   -1.6,   -0.3,    0.8,    1.0,    0.8,   -0.1,    0.2,    0.8,    2.1,    0.3,   -0.4,   -0.5,    0.4,    0.3,  999.0,  999.0,  999.0,  999.0,  999.0,  999.0,  999.0,  999.0
1999/08/01 14:30,   -4.9,   -5.3,   -4.8,   -3.7,   -2.7,   -2.1,   -1.9,   -2.3,   -1.4,   -0.0,    1.0,    1.4,    0.6,    0.7,   -0.4,   -0.6,  999.0,  999.0,   -2.1,  999.0,  999.0,  999.0,   -2.8,   -0.9,   -1.8,  999.0,  999.0,   -1.1,   -1.3,  999.0,  999.0,  999.0
1999/08/01 14:40,   -5.8,   -5.2,   -4.5,   -3.1,   -2.2,   -2.6,   -3.2,   -2.3,   -2.1,   -1.8,   -0.4,   -0.4,   -0.0,    0.1,    0.1,    0.1,    0.9,    0.8,    0.8,  999.0,  999.0,  999.0,  999.0,  999.0,  999.0,  999.0,   -2.3,   -3.0,   -3.0,  999.0,  999.0,  999.0
1999/08/01 14:50,   -5.6,   -5.1,   -3.9,   -3.3,   -2.4,   -2.5,   -2.5,   -2.5,   -2.0,   -1.1,    0.1,    0.5,    0.8,    1.0,    1.5,    1.5,    1.7,    1.0,  999.0,  999.0,  999.0,  999.0,  999.0,  999.0,  999.0,  999.0,  999.0,  999.0,  999.0,  999.0,  999.0,  999.0
1999/08/01 15:00,   -4.7,   -5.4,   -4.6,   -3.7,   -3.1,   -2.4,   -1.8,   -1.5,   -0.5,   -0.4,   -0.2,    0.4,    1.3,    0.8,    2.3,    1.4,  999.0,  999.0,  999.0,    1.6,    0.5,  999.0,  999.0,  999.0,  999.0,  999.0,  999.0,  999.0,  999.0,  999.0,  999.0,  999.0
1999/08/01 15:10,   -5.3,   -4.8,   -4.7,   -2.4,   -2.4,   -1.4,   -0.8,    0.6,    1.3,    1.3,    1.2,    1.6,    2.0,    1.7,    2.8,    2.8,  999.0,  999.0,  999.0,  999.0,  999.0,  999.0,  999.0,  999.0,  999.0,  999.0,  999.0,  999.0,  999.0,  999.0,  999.0,  999.0
1999/08/01 15:20,   -2.3,   -2.4,   -4.8,   -1.9,   -4.3,   -3.8,   -3.4,   -2.8,   -2.5,   -2.8,   -2.2,   -2.5,   -1.9,   -0.2,   -0.1,    1.6,   -1.6,  999.0,  999.0,  999.0,  999.0,  999.0,    0.8,   -1.1,   -1.7,   -2.2,   -2.2,   -0.9,   -4.1,  999.0,   -0.9,    0.4
1999/08/01 15:30,   -5.3,   -4.9,   -4.7,   -4.7,   -4.0,   -2.9,   -3.0,   -3.1,   -2.4,   -2.5,   -1.9,   -1.1,   -0.9,   -1.0,   -2.0,   -3.3,   -2.7,   -1.7,  999.0,   -2.9,   -2.4,   -1.5,   -1.1,   -4.8,   -3.1,   -1.5,   -1.3,   -2.8,   -0.7,  999.0,  999.0,  999.0
1999/08/01 15:40,   -5.5,   -5.4,   -4.8,   -3.5,   -2.6,   -2.2,   -2.1,   -3.4,   -2.4,   -2.8,   -1.5,   -1.8,   -1.6,   -0.3,   -0.9,   -0.9,   -1.4,   -0.6,   -1.9,   -1.0,   -1.8,   -4.1,   -3.7,   -3.4,   -2.7,   -2.7,   -2.9,   -2.9,  999.0,  999.0,  999.0,  999.0
1999/08/01 15:50,   -6.5,   -6.6,   -5.6,   -4.1,   -3.2,   -2.8,   -1.9,   -1.7,   -1.9,   -1.8,   -2.3,   -2.2,   -2.0,   -0.8,   -0.1,   -0.4,   -0.5,    0.2,    0.3,   -0.0,  999.0,  999.0,   -1.4,   -1.8,   -0.7,  999.0,   -2.3,   -1.4,   -0.3,  999.0,  999.0,  999.0
1999/08/01 16:00,   -6.4,   -6.6,   -6.0,   -4.7,   -3.6,   -2.8,   -1.9,   -1.3,   -1.1,   -0.3,   -0.1,   -0.4,   -0.9,    0.1,    0.9,    0.4,    0.1,   -0.1,   -0.3,   -0.5,   -1.0,   -1.6,   -1.3,   -1.3,   -1.7,  999.0,    0.3,  999.0,   -0.3,  999.0,  999.0,  999.0
1999/08/01 16:10,   -4.9,   -5.8,   -6.6,   -6.0,   -4.6,   -3.7,   -3.1,   -1.7,   -1.5,   -0.9,   -0.7,   -0.1,   -0.1,   -0.5,   -0.3,   -0.5,   -1.4,   -1.0,   -0.5,   -0.7,   -1.5,   -2.7,   -2.8,  999.0,   -0.6,   -1.0,  999.0,    1.0,    2.3,  999.0,  999.0,  999.0
1999/08/01 16:20,   -6.0,   -6.8,   -6.5,   -6.1,   -4.6,   -3.7,   -2.9,   -0.5,    0.2,    0.4,    0.3,   -0.2,    0.4,    1.2,    1.3,    0.5,   -0.7,   -0.7,   -0.3,   -0.7,   -1.7,   -2.2,   -1.6,   -1.3,   -0.7,   -1.2,  999.0,  999.0,  999.0,  999.0,  999.0,  999.0
1999/08/01 16:30,   -5.0,   -4.9,   -5.2,   -5.4,   -4.6,   -3.5,   -1.6,   -0.7,    0.1,    0.4,    0.5,    1.0,    1.8,    1.2,    1.4,    0.2,    0.2,   -0.4,   -2.4,  999.0,   -1.0,   -0.9,   -2.4,  999.0,   -2.6,  999.0,  999.0,  999.0,  999.0,  999.0,  999.0,  999.0
1999/08/01 16:40,   -4.3,   -5.2,   -4.5,   -4.7,   -4.1,   -3.0,   -2.4,   -1.0,    0.4,    0.5,    0.4,   -1.0,    0.8,    0.4,    1.0,    0.1,   -0.3,    0.0,   -0.2,  999.0,   -2.5,  999.0,    0.1,   -0.7,   -1.4,  999.0,  999.0,    0.0,  999.0,  999.0,  999.0,  999.0
1999/08/01 16:50,   -5.7,   -5.6,   -6.3,   -4.7,   -3.3,   -2.3,   -1.5,   -1.2,   -1.3,   -1.2,   -0.6,   -0.7,   -2.4,   -1.1,   -1.0,   -1.1,   -0.3,   -0.5,   -0.5,   -1.5,   -0.1,   -0.9,   -0.8,   -1.2,  999.0,    0.1,    1.4,    2.2,  999.0,  999.0,  999.0,  999.0
1999/08/01 17:00,   -5.3,   -5.6,   -6.4,   -5.2,   -3.8,   -3.5,   -2.5,   -1.8,   -1.5,   -1.1,   -0.1,    0.5,    0.4,   -0.2,   -0.5,   -0.1,   -0.2,   -0.2,  999.0,  999.0,   -2.1,   -2.9,   -1.6,   -2.3,   -2.1,   -1.4,   -0.5,  999.0,  999.0,  999.0,  999.0,  999.0
1999/08/01 17:10,   -6.1,   -5.8,   -6.2,   -6.0,   -5.4,   -4.8,   -4.6,   -2.8,   -2.1,   -1.6,   -1.3,   -0.9,    0.1,   -0.4,   -0.5,   -1.0,   -0.7,   -0.3,  999.0,  999.0,  999.0,  999.0,  999.0,  999.0,  999.0,   -1.5,  999.0,  999.0,  999.0,  999.0,  999.0,  999.0
1999/08/01 17:20,   -6.2,   -5.5,   -5.6,   -5.0,   -4.2,   -3.4,   -3.3,   -3.0,   -1.7,   -0.7,    0.3,   -0.2,    0.1,   -0.4,   -0.7,   -0.4,   -1.1,   -0.9,   -1.3,  999.0,   -2.1,   -2.6,   -2.5,   -3.0,  999.0,  999.0,   -2.9,   -2.9,  999.0,  999.0,  999.0,  999.0
1999/08/01 17:30,   -4.7,   -5.0,   -5.7,   -1.8,   -3.4,   -3.4,   -2.9,   -2.5,   -2.1,   -1.5,    0.2,    0.5,    0.8,  999.0,    0.2,    0.8,   -0.1,   -0.9,   -0.4,    0.2,   -0.9,   -2.1,  999.0,   -2.5,   -2.1,   -2.9,   -2.1,  999.0,  999.0,  999.0,  999.0,  999.0
1999/08/01 17:40,   -5.0,   -5.4,   -5.9,   -5.2,   -5.0,   -4.4,   -4.2,   -2.9,   -2.1,   -1.3,   -0.0,    0.8,    0.7,    0.6,    0.1,    0.5,  999.0,  999.0,  999.0,   -1.3,  999.0,   -0.4,   -1.8,   -1.8,  999.0,  999.0,  999.0,  999.0,  999.0,  999.0,  999.0,  999.0
1999/08/01 17:50,   -5.6,   -6.5,   -6.0,   -3.5,   -5.4,   -5.0,   -4.6,   -4.3,   -3.8,   -2.9,   -2.2,   -1.8,   -1.5,  999.0,  999.0,  999.0,  999.0,  999.0,  999.0,  999.0,  999.0,  999.0,  999.0,   -3.4,  999.0,  999.0,  999.0,  999.0,  999.0,  999.0,  999.0,  999.0
1999/08/01 18:00,   -6.1,   -5.7,   -5.6,   -6.1,   -5.7,   -5.4,   -4.3,   -3.8,   -3.6,   -2.6,   -1.4,   -0.4,   -0.2,  999.0,  999.0,  999.0,  999.0,    0.8,  999.0,  999.0,  999.0,  999.0,  999.0,  999.0,  999.0,  999.0,  999.0,  999.0,  999.0,  999.0,  999.0,  999.0
1999/08/01 18:10,   -6.7,   -6.6,   -7.0,   -6.9,   -6.0,   -5.7,   -4.8,   -3.8,   -2.5,   -2.0,   -2.0,   -1.8,    0.2,  999.0,  999.0,    1.1,    1.6,    1.1,  999.0,  999.0,    0.2,    1.4,  999.0,  999.0,  999.0,  999.0,  999.0,  999.0,  999.0,  999.0,  999.0,  999.0
1999/08/01 18:20,   -5.9,   -5.9,   -6.6,   -6.7,   -6.3,   -5.8,   -5.2,   -4.4,   -2.6,   -1.5,   -0.5,   -0.1,    0.6,  999.0,  999.0,   -0.2,    0.3,   -0.5,  999.0,  999.0,   -0.7,  999.0,  999.0,  999.0,  999.0,  999.0,  999.0,  999.0,  999.0,  999.0,  999.0,  999.0
1999/08/01 18:30,   -5.5,   -6.3,   -6.8,   -6.3,   -5.8,   -5.5,   -4.2,   -3.0,   -1.9,   -1.4,   -1.0,   -0.5,  999.0,  999.0,  999.0,  999.0,  999.0,  999.0,  999.0,  999.0,  999.0,  999.0,  999.0,  999.0,  999.0,  999.0,  999.0,  999.0,  999.0,  999.0,  999.0,  999.0
1999/08/01 18:40,   -6.2,   -5.9,   -5.5,   -5.8,   -5.7,   -5.2,   -4.4,   -3.4,   -3.1,   -2.4,   -2.2,   -1.0,    0.8,    0.0,  999.0,   -0.4,  999.0,  999.0,  999.0,  999.0,  999.0,  999.0,  999.0,  999.0,  999.0,  999.0,  999.0,  999.0,  999.0,  999.0,  999.0,  999.0
1999/08/01 18:50,   -5.3,   -5.3,   -5.6,   -4.9,   -4.6,   -4.6,   -4.2,   -3.0,   -2.4,   -0.7,   -0.7,   -1.0,   -0.0,    0.1,    0.4,    0.1,  999.0,  999.0,  999.0,  999.0,  999.0,  999.0,  999.0,  999.0,  999.0,  999.0,  999.0,  999.0,  999.0,  999.0,  999.0,  999.0
1999/08/01 19:00,   -5.5,   -5.4,   -5.9,   -5.7,   -5.2,   -5.0,   -4.2,   -4.2,   -3.3,   -2.0,   -1.0,   -0.4,    0.9,    1.0,    1.1,    0.4,    0.0,   -1.1,  999.0,  999.0,  999.0,  999.0,  999.0,  999.0,  999.0,  999.0,  999.0,  999.0,  999.0,  999.0,  999.0,  999.0
1999/08/01 19:10,   -6.3,   -5.9,   -6.5,   -6.7,   -6.1,   -6.0,   -5.0,   -4.4,   -3.5,   -2.1,   -1.0,    0.3,    1.9,    1.7,    1.2,    0.5,    1.1,   -0.4,  999.0,  999.0,  999.0,  999.0,  999.0,  999.0,  999.0,  999.0,  999.0,  999.0,  999.0,  999.0,  999.0,  999.0
1999/08/01 19:20,   -5.9,   -5.9,   -6.1,   -5.8,   -5.7,   -5.2,   -4.6,   -4.0,   -3.4,   -2.6,   -1.0,    0.2,    1.5,    2.0,    1.7,  999.0,  999.0,  999.0,  999.0,  999.0,  999.0,  999.0,  999.0,  999.0,  999.0,  999.0,  999.0,  999.0,  999.0,  999.0,  999.0,  999.0
1999/08/01 19:30,   -5.8,   -6.3,   -6.7,   -6.9,   -6.6,   -5.8,   -4.7,   -3.1,   -1.6,   -1.3,   -0.7,    0.8,    0.8,    1.3,  999.0,  999.0,  999.0,  999.0,  999.0,  999.0,   -2.1,  999.0,  999.0,  999.0,  999.0,  999.0,  999.0,  999.0,  999.0,  999.0,  999.0,  999.0
1999/08/01 19:40,   -6.7,   -7.1,   -7.3,   -7.4,   -6.6,   -6.1,   -5.6,   -4.1,   -2.3,   -1.6,   -1.2,   -0.5,    0.8,    1.6,    1.5,  999.0,  999.0,  999.0,  999.0,  999.0,  999.0,  999.0,  999.0,  999.0,  999.0,  999.0,  999.0,  999.0,  999.0,  999.0,  999.0,  999.0
1999/08/01 19:50,   -7.1,   -6.9,   -7.3,   -6.9,   -6.8,   -7.1,   -5.5,   -3.6,   -2.5,   -0.2,    0.1,    1.0,    1.7,    1.8,    1.2,    2.5,  999.0,  999.0,  999.0,  999.0,  999.0,  999.0,  999.0,  999.0,  999.0,  999.0,  999.0,  999.0,  999.0,  999.0,  999.0,  999.0
1999/08/01 20:00,   -7.2,   -7.0,   -6.3,   -6.6,   -6.6,   -6.6,   -6.0,   -4.8,   -2.2,   -1.3,   -0.8,    0.7,    1.3,    1.3,    0.9,   -0.1,  999.0,  999.0,  999.0,  999.0,  999.0,  999.0,  999.0,  999.0,  999.0,  999.0,  999.0,  999.0,  999.0,  999.0,  999.0,  999.0
1999/08/01 20:10,   -7.3,   -7.2,   -7.7,   -7.8,   -7.4,   -6.8,   -5.4,   -4.6,   -3.5,   -1.8,   -0.6,   -1.2,    0.1,    1.4,    0.6,    0.1,  999.0,  999.0,  999.0,  999.0,  999.0,  999.0,  999.0,  999.0,  999.0,  999.0,  999.0,  999.0,  999.0,  999.0,  999.0,  999.0
1999/08/01 20:20,   -6.7,   -7.1,   -7.0,   -7.8,   -7.9,   -7.5,   -6.6,   -6.0,   -4.7,   -3.3,   -1.9,   -1.1,   -0.7,   -0.5,    0.2,    0.9,    1.0,  999.0,  999.0,  999.0,  999.0,  999.0,  999.0,  999.0,  999.0,  999.0,  999.0,  999.0,  999.0,  999.0,  999.0,  999.0
1999/08/01 20:30,   -6.9,   -6.5,   -6.8,   -7.1,   -7.1,   -6.6,   -5.8,   -5.1,   -4.5,   -3.4,   -3.2,   -2.2,   -1.3,   -1.2,    0.5,    1.0,  999.0,  999.0,  999.0,  999.0,  999.0,  999.0,  999.0,  999.0,  999.0,  999.0,  999.0,  999.0,  999.0,  999.0,  999.0,  999.0
1999/08/01 20:40,   -6.5,   -7.1,   -7.7,   -7.2,   -6.7,   -6.3,   -5.9,   -5.1,   -4.4,   -3.7,   -2.9,   -2.2,   -2.3,   -1.9,   -1.2,   -1.2,    0.5,    1.1,   -0.4,  999.0,  999.0,  999.0,  999.0,  999.0,  999.0,  999.0,  999.0,  999.0,  999.0,  999.0,  999.0,  999.0
1999/08/01 20:50,   -6.6,   -6.3,   -6.6,   -6.3,   -6.3,   -6.6,   -6.9,   -6.0,   -4.2,   -3.3,   -2.6,   -2.2,   -1.8,   -1.7,   -2.1,   -1.6,  999.0,   -0.8,  999.0,  999.0,  999.0,  999.0,  999.0,  999.0,  999.0,    0.1,   -0.2,  999.0,  999.0,    1.4,  999.0,  999.0
1999/08/01 21:00,   -5.6,   -5.8,   -6.4,   -6.5,   -5.9,   -6.0,   -6.7,   -6.0,   -5.5,   -4.7,   -4.1,   -3.2,   -0.3,   -0.1,    0.2,   -0.5,   -0.8,   -0.1,    1.1,  999.0,  999.0,   -0.8,    0.2,    0.7,  999.0,  999.0,    2.8,    0.7,    1.0,    2.3,  999.0,  999.0
1999/08/01 21:10,   -5.6,   -5.7,   -5.6,   -5.8,   -5.9,   -5.9,   -5.7,   -5.0,   -5.5,   -4.8,   -4.7,   -4.3,   -3.8,   -1.2,   -0.7,   -1.0,   -0.3,    0.3,   -0.1,   -0.2,   -0.7,    0.6,  999.0,  999.0,  999.0,  999.0,    1.4,  999.0,  999.0,    1.4,    1.5,    1.4
1999/08/01 21:20,   -5.9,   -5.6,   -5.6,   -6.0,   -6.1,   -5.7,   -5.8,   -5.7,   -5.4,   -4.8,   -4.3,   -3.7,   -3.0,   -1.7,  999.0,   -0.0,   -0.4,   -1.3,   -2.4,  999.0,  999.0,  999.0,  999.0,  999.0,  999.0,  999.0,  999.0,  999.0,  999.0,  999.0,   -0.1,    0.9
1999/08/01 21:30,   -6.1,   -6.0,   -6.3,   -6.9,   -6.3,   -5.7,   -5.8,   -5.9,   -4.8,   -3.4,   -2.7,   -1.8,   -2.0,   -1.0,    0.2,   -0.0,    2.8,    2.2,  999.0,    1.8,    1.1,    1.0,    1.1,    0.4,   -0.0,    1.1,    0.9,    1.2,  999.0,  999.0,  999.0,  999.0
1999/08/01 21:40,   -7.9,   -7.7,   -8.1,   -8.3,   -7.6,   -7.1,   -6.8,   -6.0,   -4.4,   -3.6,   -2.9,   -1.8,   -1.5,   -0.1,   -0.7,  999.0,   -0.5,    0.1,    0.5,    0.4,   -0.7,  999.0,   -2.6,   -2.2,  999.0,   -0.6,  999.0,  999.0,    3.2,  999.0,    2.3,    2.1
1999/08/01 21:50,   -8.2,   -8.9,   -8.4,   -8.5,   -7.4,   -6.1,   -4.8,   -4.3,   -4.0,   -3.0,   -2.2,   -0.5,   -0.4,   -1.3,    0.4,  999.0,   -0.2,    0.5,    1.3,    1.3,   -0.1,    0.1,   -1.4,   -2.1,  999.0,   -0.9,    0.5,  999.0,    1.4,  999.0,   -1.0,   -0.6
1999/08/01 22:00,   -8.0,   -8.2,   -7.3,   -6.9,   -6.2,   -5.6,   -6.2,   -6.1,   -5.7,   -4.9,   -4.3,   -3.3,   -1.9,  999.0,   -1.9,  999.0,   -0.2,   -0.7,   -0.6,   -0.8,   -1.9,   -1.7,   -1.7,   -0.6,  999.0,  999.0,    0.1,    1.3,    0.7,    0.1,  999.0,   -1.8
1999/08/01 22:10,   -7.6,   -6.5,   -6.2,   -7.4,  999.0,  999.0,   -5.7,   -8.3,   -5.8,   -5.6,   -4.7,   -4.0,   -3.8,   -4.1,   -3.0,  999.0,   -1.3,   -1.3,   -0.1,    0.7,    1.8,    0.4,    0.1,   -0.5,   -0.3,    0.7,  999.0,  999.0,  999.0,  999.0,  999.0,  999.0
1999/08/01 22:20,   -7.9,   -7.4,   -6.8,   -6.3,   -5.8,   -6.0,   -5.6,   -4.6,   -4.5,   -3.7,   -2.8,   -2.0,   -1.8,   -1.4,    0.0,   -0.4,   -1.5,   -0.1,    0.5,    1.1,    1.4,    1.4,   -0.1,   -0.6,   -0.1,   -0.4,  999.0,  999.0,  999.0,  999.0,  999.0,  999.0
1999/08/01 22:30,   -6.4,   -6.7,   -6.7,   -7.0,   -7.2,   -6.3,   -6.3,   -5.9,   -5.5,   -4.9,   -4.0,   -2.3,   -1.2,   -0.4,   -1.4,   -1.2,   -0.5,    0.0,    1.1,  999.0,   -0.5,    0.1,   -1.0,   -0.8,  999.0,  999.0,  999.0,  999.0,  999.0,  999.0,  999.0,  999.0
1999/08/01 22:40,   -6.2,   -6.7,   -6.9,   -7.2,   -7.2,   -6.9,   -6.6,   -6.5,   -6.2,   -5.6,   -4.7,   -3.5,   -2.8,   -2.2,   -2.4,   -2.4,   -0.9,    0.3,    0.2,    0.4,   -1.5,  999.0,  999.0,  999.0,   -1.0,   -0.8,  999.0,  999.0,  999.0,   -1.7,  999.0,  999.0
1999/08/01 22:50,   -6.4,   -6.7,   -6.8,   -7.2,   -6.8,   -6.6,   -6.3,   -5.9,   -5.7,   -4.9,   -3.6,   -3.4,   -2.7,  999.0,  999.0,   -2.0,   -1.6,   -2.9,  999.0,   -1.7,   -1.8,   -1.6,  999.0,  999.0,   -1.2,   -1.2,   -0.9,    0.2,  999.0,  999.0,  999.0,  999.0
1999/08/01 23:00,   -7.2,   -7.2,   -7.6,   -6.8,   -6.9,   -6.5,   -6.7,   -6.4,   -6.1,   -5.1,   -3.3,   -2.3,   -1.7,   -1.2,  999.0,  999.0,   -2.0,   -1.3,   -0.3,   -0.4,  999.0,    0.1,   -0.2,   -1.7,   -1.0,   -1.0,    0.9,    0.6,  999.0,  999.0,  999.0,  999.0
1999/08/01 23:10,   -7.3,   -6.5,   -6.4,   -7.7,   -8.2,   -7.9,   -7.2,   -6.7,   -5.7,   -4.5,   -2.9,   -2.1,   -2.1,   -1.4,   -0.5,   -0.3,    0.1,    1.4,    1.1,    1.1,  999.0,   -0.1,   -0.6,   -0.9,  999.0,  999.0,  999.0,  999.0,  999.0,  999.0,  999.0,  999.0
1999/08/01 23:20,   -6.7,   -6.8,   -6.5,   -6.9,   -7.2,   -7.3,   -7.2,   -6.2,   -5.2,   -4.8,   -2.9,   -2.2,   -2.1,   -1.9,   -0.8,    0.4,    0.9,    1.2,    1.2,    0.9,    0.4,   -0.1,  999.0,  999.0,  999.0,  999.0,  999.0,  999.0,  999.0,  999.0,  999.0,  999.0
1999/08/01 23:30,   -5.6,   -5.0,   -5.4,   -6.4,   -6.9,   -7.0,   -6.2,   -5.3,   -4.5,   -4.2,   -2.9,   -1.5,   -1.2,   -1.4,   -1.7,   -1.1,   -0.1,    0.4,    0.1,   -0.0,  999.0,  999.0,  999.0,  999.0,  999.0,  999.0,  999.0,  999.0,  999.0,  999.0,  999.0,  999.0
1999/08/01 23:40,   -4.8,   -4.4,   -5.6,   -6.6,   -6.6,   -6.8,   -6.8,   -6.3,   -5.2,   -5.2,   -4.4,   -2.2,  999.0,  999.0,  999.0,   -1.0,    0.9,    0.9,  999.0,  999.0,  999.0,    0.1,  999.0,  999.0,  999.0,  999.0,  999.0,  999.0,  999.0,  999.0,  999.0,  999.0
1999/08/01 23:50,   -5.0,   -5.4,   -6.3,   -7.0,   -7.3,   -7.4,   -7.6,   -7.1,   -6.3,   -5.5,   -4.8,   -3.0,  999.0,  999.0,  999.0,   -2.5,   -2.0,   -1.4,   -0.6,  999.0,    0.7,    0.7,    0.8,  999.0,  999.0,  999.0,  999.0,  999.0,  999.0,  999.0,  999.0,  999.0
